GW2129 Weather Reports


Display with metric or nautical units.
time (UTC)temp
F
wind
direction
speed
MPH
gust
MPH
rain 1hr
in
rain 24hr
in
rain mn
in
humidity
%
barometer
mb
20260508134409 63 72 3.0 4.0 0.00 0.00 0.00 84 1013.9
20260508133906 62 4 3.0 4.0 0.00 0.00 0.00 84 1014.2
20260508133404 62 0 2.0 4.0 0.00 0.00 0.00 84 1014.2
20260508132901 62 67 3.0 5.0 0.00 0.00 0.00 84 1014.1
20260508132359 62 321 0.0 4.0 0.00 0.00 0.00 84 1013.9
20260508131855 62 1 2.0 4.0 0.00 0.00 0.00 84 1014.0
20260508131350 62 336 3.0 4.0 0.00 0.00 0.00 84 1014.1
20260508130848 62 344 2.0 3.0 0.00 0.00 0.00 84 1014.3
20260508130344 62 336 3.0 5.0 0.00 0.00 0.00 84 1014.3
20260508125840 62 21 4.0 5.0 0.00 0.00 0.00 84 1014.2
20260508125336 62 326 2.0 6.0 0.00 0.00 0.00 85 1014.3
20260508124835 62 354 3.0 6.0 0.00 0.00 0.00 85 1014.3
20260508124332 62 20 3.0 7.0 0.00 0.00 0.00 85 1014.0
20260508123830 62 353 3.0 6.0 0.00 0.00 0.00 86 1014.0
20260508123328 62 5 4.0 5.0 0.00 0.00 0.00 86 1013.9
20260508122824 61 329 5.0 9.0 0.00 0.00 0.00 86 1014.0
20260508122321 61 312 3.0 5.0 0.00 0.00 0.00 87 1013.7
20260508121818 61 5 3.0 7.0 0.00 0.00 0.00 87 1013.8
20260508121317 61 354 2.0 4.0 0.00 0.00 0.00 87 1013.8
20260508120814 61 3 3.0 5.0 0.00 0.00 0.00 87 1013.7
20260508120312 61 5 5.0 5.0 0.00 0.00 0.00 88 1013.6
20260508115809 61 314 4.0 5.0 0.00 0.00 0.00 88 1014.1
20260508115307 61 4 3.0 5.0 0.00 0.00 0.00 88 1013.8
20260508114803 61 11 2.0 3.0 0.00 0.00 0.00 88 1013.9
20260508114300 61 21 2.0 5.0 0.00 0.00 0.00 87 1013.7
20260508113756 61 78 3.0 6.0 0.00 0.00 0.00 86 1014.1
20260508113254 62 63 2.0 5.0 0.00 0.00 0.00 85 1014.0
20260508112750 62 282 5.0 6.0 0.00 0.00 0.00 83 1014.7
20260508112247 62 308 2.0 5.0 0.00 0.00 0.00 82 1015.1
20260508111743 63 328 2.0 3.0 0.00 0.00 0.00 80 1015.2
20260508111241 63 315 4.0 7.0 0.00 0.00 0.00 80 1015.0
20260508110738 63 339 2.0 6.0 0.00 0.00 0.00 79 1015.1
20260508110235 63 331 4.0 6.0 0.00 0.00 0.00 79 1014.9
20260508105730 63 350 3.0 4.0 0.00 0.00 0.00 79 1014.7
20260508105227 63 15 3.0 4.0 0.00 0.00 0.00 79 1014.7
20260508104724 63 340 3.0 4.0 0.00 0.00 0.00 79 1014.5
20260508104221 63 24 2.0 5.0 0.00 0.00 0.00 79 1014.3
20260508103719 63 31 4.0 4.0 0.00 0.00 0.00 79 1014.3
20260508103215 63 352 4.0 4.0 0.00 0.00 0.00 79 1014.3
20260508102712 63 333 3.0 5.0 0.00 0.00 0.00 79 1014.4
20260508102210 63 17 4.0 5.0 0.00 0.00 0.00 79 1014.1
20260508101707 62 357 3.0 5.0 0.00 0.00 0.00 80 1014.2
20260508101205 62 323 2.0 5.0 0.00 0.00 0.00 80 1014.1
20260508100702 62 349 3.0 4.0 0.00 0.00 0.00 80 1014.0
20260508100200 62 41 4.0 5.0 0.00 0.00 0.00 80 1013.8
20260508095656 62 66 2.0 3.0 0.00 0.00 0.00 80 1014.2
20260508095154 62 60 0.0 3.0 0.00 0.00 0.00 80 1014.1
20260508094650 62 353 0.0 5.0 0.00 0.00 0.00 80 1014.0
20260508094147 62 312 4.0 5.0 0.00 0.00 0.00 80 1014.0
20260508093644 62 320 1.0 5.0 0.00 0.00 0.00 80 1014.3
20260508093142 62 289 3.0 5.0 0.00 0.00 0.00 80 1014.5
20260508092639 62 105 3.0 5.0 0.00 0.00 0.00 80 1013.9
20260508092138 62 7 0.0 3.0 0.00 0.00 0.00 80 1014.4
20260508091634 62 349 3.0 3.0 0.00 0.00 0.00 80 1014.3
20260508091132 62 334 1.0 3.0 0.00 0.00 0.00 80 1014.3
20260508090630 62 351 1.0 4.0 0.00 0.00 0.00 81 1014.2
20260508090127 62 329 3.0 5.0 0.00 0.00 0.00 81 1014.7
20260508085622 62 333 3.0 5.0 0.00 0.00 0.00 80 1014.6
20260508085120 62 9 3.0 3.0 0.00 0.00 0.00 80 1014.2
20260508084616 62 341 3.0 5.0 0.00 0.00 0.00 80 1014.2
20260508084114 62 314 1.0 5.0 0.00 0.00 0.00 80 1014.2
20260508083611 62 14 2.0 5.0 0.00 0.00 0.00 80 1014.2
20260508083108 63 341 4.0 5.0 0.00 0.00 0.00 79 1014.3
20260508082603 63 4 2.0 3.0 0.00 0.00 0.00 79 1014.0
20260508082101 63 69 2.0 3.0 0.00 0.00 0.00 79 1014.3
20260508081558 63 334 2.0 3.0 0.00 0.00 0.00 79 1014.4
20260508081054 63 289 2.0 5.0 0.00 0.00 0.00 78 1014.7
20260508080552 63 305 2.0 3.0 0.00 0.00 0.00 78 1014.4
20260508080050 63 321 0.0 3.0 0.00 0.00 0.00 78 1015.0
20260508075546 63 323 3.0 3.0 0.00 0.00 0.00 77 1014.6
20260508075043 63 17 3.0 4.0 0.00 0.00 0.00 77 1014.4
20260508074541 63 302 1.0 3.0 0.00 0.00 0.00 77 1014.7
20260508074037 63 296 0.0 3.0 0.00 0.00 0.00 77 1014.5
20260508073535 63 327 2.0 5.0 0.00 0.00 0.00 77 1014.5
20260508073032 63 341 2.0 5.0 0.00 0.00 0.00 77 1014.7
20260508072528 63 2 2.0 5.0 0.00 0.00 0.00 76 1015.0
20260508072025 63 346 2.0 3.0 0.00 0.00 0.00 76 1015.2
20260508071523 63 4 3.0 4.0 0.00 0.00 0.00 76 1015.1
20260508071021 63 32 1.0 3.0 0.00 0.00 0.00 76 1014.7
20260508070518 63 60 2.0 3.0 0.00 0.00 0.00 76 1015.0
20260508070016 63 22 2.0 5.0 0.00 0.00 0.00 76 1015.1
20260508065514 63 2 3.0 4.0 0.00 0.00 0.00 76 1014.6
20260508065012 63 343 4.0 5.0 0.00 0.00 0.00 76 1014.4
20260508064509 63 342 5.0 5.0 0.00 0.00 0.00 77 1014.4
20260508064007 63 9 2.0 4.0 0.00 0.00 0.00 77 1014.3
20260508063504 63 334 3.0 3.0 0.00 0.00 0.00 77 1014.6
20260508063002 63 63 2.0 5.0 0.00 0.00 0.00 77 1015.2
20260508062459 63 5 0.0 3.0 0.00 0.00 0.00 76 1015.3
20260508061955 63 355 2.0 3.0 0.00 0.00 0.00 76 1015.5
20260508061454 63 73 3.0 3.0 0.00 0.00 0.00 76 1015.3
20260508060949 63 25 0.0 2.0 0.00 0.00 0.00 76 1015.5
20260508060447 63 12 2.0 3.0 0.00 0.00 0.00 76 1015.5
20260508055943 63 13 2.0 3.0 0.00 0.00 0.00 76 1015.4
20260508055440 63 354 3.0 3.0 0.00 0.00 0.00 76 1015.8
20260508054936 63 320 4.0 4.0 0.00 0.00 0.00 76 1015.8
20260508054434 63 54 0.0 3.0 0.00 0.00 0.00 76 1016.0
20260508053930 63 306 2.0 3.0 0.00 0.00 0.00 76 1015.7
20260508053427 63 303 3.0 5.0 0.00 0.00 0.00 76 1015.7
20260508052925 63 332 3.0 4.0 0.00 0.00 0.00 77 1015.8
20260508052422 63 272 2.0 5.0 0.00 0.00 0.00 77 1015.7
20260508051919 63 306 2.0 5.0 0.00 0.00 0.00 77 1015.8
20260508051415 62 288 6.0 8.0 0.00 0.00 0.00 77 1015.8
20260508050911 62 326 2.0 7.0 0.00 0.00 0.00 78 1015.3
20260508050408 62 34 3.0 6.0 0.00 0.00 0.00 78 1015.1
20260508045903 62 328 2.0 5.0 0.00 0.00 0.00 77 1015.4
20260508045402 63 327 4.0 5.0 0.00 0.00 0.00 76 1015.1
20260508044859 63 32 2.0 5.0 0.00 0.00 0.00 76 1015.0
20260508044355 62 352 3.0 5.0 0.00 0.00 0.00 77 1014.9
20260508043851 62 37 2.0 2.0 0.00 0.00 0.00 77 1014.6
20260508043348 62 36 2.0 3.0 0.00 0.00 0.00 78 1014.4
20260508042845 62 64 2.0 5.0 0.00 0.00 0.00 78 1014.4
20260508042343 62 47 2.0 3.0 0.00 0.00 0.00 78 1014.6
20260508041839 62 107 2.0 3.0 0.00 0.00 0.00 78 1014.7
20260508041336 63 84 2.0 4.0 0.00 0.00 0.00 77 1015.1
20260508040832 63 14 3.0 4.0 0.00 0.00 0.00 77 1015.3
20260508040330 63 12 3.0 4.0 0.00 0.00 0.00 77 1015.1
20260508035827 63 3 3.0 4.0 0.00 0.00 0.00 76 1015.7
20260508035324 63 12 2.0 5.0 0.00 0.00 0.00 76 1015.8
20260508034821 63 13 2.0 3.0 0.00 0.00 0.00 77 1015.9
20260508034318 63 67 1.0 3.0 0.00 0.00 0.00 77 1015.7
20260508033815 63 48 2.0 4.0 0.00 0.00 0.00 76 1015.8
20260508033313 63 1 2.0 4.0 0.00 0.00 0.00 76 1016.2
20260508032810 63 331 2.0 3.0 0.00 0.00 0.00 75 1016.1
20260508032308 63 281 3.0 5.0 0.00 0.00 0.00 76 1016.4
20260508031804 63 327 2.0 3.0 0.00 0.00 0.00 76 1016.4
20260508031301 63 340 2.0 4.0 0.00 0.00 0.00 76 1016.3
20260508030757 63 300 3.0 4.0 0.00 0.00 0.00 76 1016.3
20260508030255 64 278 3.0 5.0 0.00 0.00 0.00 75 1016.4
20260508025751 64 290 3.0 4.0 0.00 0.00 0.00 74 1016.2
20260508025248 64 345 3.0 4.0 0.00 0.00 0.00 74 1015.9
20260508024744 64 307 2.0 4.0 0.00 0.00 0.00 74 1015.8
20260508024241 64 357 1.0 3.0 0.00 0.00 0.00 73 1015.5
20260508023738 64 8 4.0 7.0 0.00 0.00 0.00 73 1015.0
20260508023236 64 87 4.0 6.0 0.00 0.00 0.00 73 1015.0
20260508022731 64 118 4.0 6.0 0.00 0.00 0.00 72 1015.0
20260508022228 64 72 4.0 6.0 0.00 0.00 0.00 72 1014.6
20260508021725 64 13 1.0 3.0 0.00 0.00 0.00 72 1015.0
20260508021220 64 83 4.0 5.0 0.00 0.00 0.00 71 1015.2
20260508020718 64 37 4.0 7.0 0.00 0.00 0.00 72 1014.4
20260508020215 64 89 6.0 9.0 0.00 0.00 0.00 72 1014.2
20260508015712 64 101 2.0 7.0 0.00 0.00 0.00 72 1014.1
20260508015209 64 339 5.0 6.0 0.00 0.00 0.00 72 1014.2
20260508014706 65 348 2.0 3.0 0.00 0.00 0.00 72 1014.3
20260508014202 65 46 5.0 7.0 0.00 0.00 0.00 71 1014.2
20260508013658 65 46 1.0 5.0 0.00 0.00 0.00 71 1014.4
20260508013155 65 97 5.0 5.0 0.00 0.00 0.00 70 1014.4
20260508012653 66 355 6.0 6.0 0.00 0.00 0.00 69 1015.1
20260508012149 66 346 3.0 7.0 0.00 0.00 0.00 69 1015.1
20260508011648 66 342 5.0 6.0 0.00 0.00 0.00 69 1014.7
20260508011145 66 35 5.0 9.0 0.00 0.00 0.00 68 1013.5
20260508010641 66 92 6.0 14.0 0.00 0.00 0.00 68 1012.3
20260508010139 66 103 5.0 13.0 0.00 0.00 0.00 67 1012.6
20260508005636 66 96 7.0 11.0 0.00 0.00 0.00 67 1013.0
20260508005133 66 97 4.0 7.0 0.00 0.00 0.00 66 1013.6
20260508004628 66 97 3.0 6.0 0.00 0.00 0.00 66 1013.7
20260508004125 66 88 4.0 7.0 0.00 0.00 0.00 65 1013.8
20260508003621 67 87 3.0 7.0 0.00 0.00 0.00 64 1014.3
20260508003119 67 6 3.0 5.0 0.00 0.00 0.00 64 1014.7
20260508002615 67 82 4.0 5.0 0.00 0.00 0.00 65 1014.7
20260508002113 67 82 3.0 5.0 0.00 0.00 0.00 66 1014.7
20260508001608 67 7 4.0 5.0 0.00 0.00 0.00 65 1015.1
20260508001105 67 29 2.0 4.0 0.00 0.00 0.00 65 1015.0
20260508000601 67 36 2.0 5.0 0.00 0.00 0.00 64 1015.1
20260508000058 68 91 2.0 4.0 0.00 0.00 0.00 63 1015.2
20260507235555 68 356 3.0 5.0 0.00 0.00 0.00 63 1015.5
20260507235052 68 322 2.0 5.0 0.00 0.00 0.00 62 1015.6
20260507234548 68 4 3.0 5.0 0.00 0.00 0.00 62 1015.5
20260507234045 69 15 4.0 5.0 0.00 0.00 0.00 61 1015.6
20260507233542 69 58 3.0 7.0 0.00 0.00 0.00 62 1015.7
20260507233041 68 307 3.0 6.0 0.00 0.00 0.00 62 1015.6
20260507232536 68 309 5.0 8.0 0.00 0.00 0.00 62 1015.4
20260507232034 68 342 5.0 11.0 0.00 0.00 0.00 61 1015.5
20260507231530 69 42 2.0 8.0 0.00 0.00 0.00 61 1015.5
20260507231028 69 59 4.0 6.0 0.00 0.00 0.00 62 1015.7
20260507230524 68 355 5.0 8.0 0.00 0.00 0.00 62 1016.0
20260507230021 68 2 3.0 8.0 0.00 0.00 0.00 63 1015.8
20260507225516 68 337 6.0 8.0 0.00 0.00 0.00 62 1015.8
20260507225012 68 357 6.0 7.0 0.00 0.00 0.00 63 1015.7
20260507224508 69 58 3.0 5.0 0.00 0.00 0.00 62 1015.8
20260507224005 69 46 4.0 9.0 0.00 0.00 0.00 60 1015.7
20260507223501 69 31 3.0 10.0 0.00 0.00 0.00 61 1015.9
20260507222958 68 29 5.0 9.0 0.00 0.00 0.00 62 1015.9
20260507222455 68 332 7.0 9.0 0.00 0.00 0.00 63 1015.9
20260507221951 68 14 4.0 8.0 0.00 0.00 0.00 65 1016.0
20260507221448 68 50 4.0 7.0 0.00 0.00 0.00 64 1016.3
20260507220945 68 27 6.0 8.0 0.00 0.00 0.00 64 1016.2
20260507220442 68 337 2.0 5.0 0.00 0.00 0.00 63 1016.1
20260507215939 68 1 3.0 5.0 0.00 0.00 0.00 64 1016.2
20260507215435 68 359 4.0 6.0 0.00 0.00 0.00 63 1016.2
20260507214933 68 355 5.0 9.0 0.00 0.00 0.00 64 1015.9
20260507214430 68 19 6.0 10.0 0.00 0.00 0.00 62 1016.6
20260507213926 68 350 7.0 9.0 0.00 0.00 0.00 62 1016.4
20260507213422 68 19 8.0 10.0 0.00 0.00 0.00 64 1015.9
20260507212920 68 39 3.0 7.0 0.00 0.00 0.00 64 1015.9
20260507212415 68 354 2.0 6.0 0.00 0.00 0.00 66 1015.9
20260507211912 68 2 5.0 10.0 0.00 0.00 0.00 65 1016.3
20260507211409 68 356 6.0 11.0 0.00 0.00 0.00 65 1016.1
20260507210906 68 356 4.0 9.0 0.00 0.00 0.00 65 1016.5
20260507210403 68 30 4.0 9.0 0.00 0.00 0.00 66 1016.4
20260507205859 68 355 5.0 9.0 0.00 0.00 0.00 65 1016.4
20260507205356 68 68 5.0 7.0 0.00 0.00 0.00 66 1016.4
20260507204852 68 82 5.0 8.0 0.00 0.00 0.00 66 1015.9
20260507204349 68 350 7.0 11.0 0.00 0.00 0.00 66 1015.9
20260507203847 67 87 4.0 10.0 0.00 0.00 0.00 68 1015.8
20260507203345 67 331 9.0 10.0 0.00 0.00 0.00 68 1015.8
20260507202841 67 69 4.0 6.0 0.00 0.00 0.00 69 1016.0
20260507202337 67 14 3.0 6.0 0.00 0.00 0.00 67 1015.9
20260507201833 67 18 4.0 9.0 0.00 0.00 0.00 68 1016.2
20260507201328 67 345 4.0 6.0 0.00 0.00 0.00 69 1016.2
20260507200825 67 350 4.0 10.0 0.00 0.00 0.00 68 1016.0
20260507200321 66 43 5.0 10.0 0.00 0.00 0.00 68 1016.0
20260507195817 67 38 2.0 8.0 0.00 0.00 0.00 68 1016.3
20260507195315 66 3 3.0 14.0 0.00 0.00 0.00 69 1016.5
20260507194812 66 349 11.0 12.0 0.00 0.00 0.00 69 1016.4
20260507194308 66 355 5.0 6.0 0.00 0.00 0.00 71 1016.3
20260507193805 66 95 9.0 12.0 0.00 0.00 0.00 70 1015.9
20260507193302 66 48 3.0 11.0 0.00 0.00 0.00 71 1016.1
20260507192757 66 6 7.0 10.0 0.00 0.00 0.00 70 1016.1
20260507192254 66 18 3.0 8.0 0.00 0.00 0.00 72 1016.1
20260507191750 66 5 6.0 12.0 0.00 0.00 0.00 71 1016.4
20260507191247 66 3 6.0 9.0 0.00 0.00 0.00 72 1016.6
20260507190744 66 48 2.0 7.0 0.00 0.00 0.00 74 1016.6
20260507190243 65 48 4.0 9.0 0.00 0.00 0.00 73 1016.8
20260507185741 65 17 3.0 8.0 0.00 0.00 0.00 74 1017.0
20260507185237 65 1 6.0 7.0 0.00 0.00 0.00 74 1017.1
20260507184735 65 3 5.0 8.0 0.00 0.00 0.00 74 1017.2
20260507184233 65 45 6.0 8.0 0.00 0.00 0.00 74 1017.6
20260507183729 65 355 6.0 8.0 0.00 0.00 0.00 74 1017.3
20260507183226 65 85 7.0 7.0 0.00 0.00 0.00 74 1017.6
20260507182724 65 43 6.0 8.0 0.00 0.00 0.00 74 1017.4
20260507182218 66 337 8.0 9.0 0.00 0.00 0.00 74 1017.4
20260507181716 66 0 6.0 9.0 0.00 0.00 0.00 73 1017.3
20260507181212 66 352 5.0 10.0 0.00 0.00 0.00 73 1017.4
20260507180710 66 10 7.0 11.0 0.00 0.00 0.00 73 1017.6
20260507180206 66 121 6.0 10.0 0.00 0.00 0.00 74 1017.4
20260507175701 66 15 7.0 8.0 0.00 0.00 0.00 74 1017.4
20260507175158 65 57 7.0 10.0 0.00 0.00 0.00 75 1017.5
20260507174656 65 67 3.0 8.0 0.00 0.00 0.00 75 1017.5
20260507174154 65 30 5.0 12.0 0.00 0.00 0.00 76 1017.3
20260507173651 65 350 4.0 9.0 0.00 0.00 0.00 77 1017.4
20260507173147 65 20 8.0 10.0 0.00 0.00 0.00 76 1017.5
20260507172644 64 36 4.0 9.0 0.00 0.00 0.00 78 1017.5
20260507172141 63 7 7.0 14.0 0.00 0.00 0.00 79 1017.4
20260507171636 63 8 4.0 8.0 0.00 0.00 0.00 79 1017.6
20260507171133 63 75 3.0 7.0 0.00 0.00 0.00 81 1017.7
20260507170630 63 77 3.0 8.0 0.00 0.00 0.00 82 1017.7
20260507170127 62 17 7.0 10.0 0.00 0.00 0.00 82 1017.9
20260507165622 62 353 6.0 8.0 0.00 0.00 0.00 83 1018.3
20260507165119 62 351 5.0 9.0 0.00 0.00 0.00 83 1018.2
20260507164615 62 343 7.0 12.0 0.00 0.00 0.00 83 1017.9
20260507164112 62 5 4.0 11.0 0.00 0.00 0.00 83 1018.2
20260507163609 61 30 4.0 12.0 0.00 0.00 0.00 83 1018.2
20260507163107 61 9 11.0 13.0 0.00 0.00 0.00 83 1018.0
20260507162602 61 340 3.0 12.0 0.00 0.00 0.00 83 1018.1
20260507162059 61 356 8.0 12.0 0.00 0.00 0.00 84 1018.2
20260507161555 61 350 7.0 9.0 0.00 0.00 0.00 84 1018.0
20260507161052 61 32 5.0 14.0 0.00 0.00 0.00 84 1018.1
20260507160548 61 13 6.0 9.0 0.00 0.00 0.00 85 1017.7
20260507160045 61 350 5.0 10.0 0.00 0.00 0.00 85 1017.8
20260507155540 61 325 3.0 10.0 0.00 0.00 0.00 85 1018.1
20260507155037 60 19 5.0 10.0 0.00 0.00 0.00 85 1018.1
20260507154534 60 356 7.0 10.0 0.00 0.00 0.00 85 1018.3
20260507154026 60 28 8.0 10.0 0.00 0.00 0.00 86 1018.1
20260507153522 60 71 11.0 16.0 0.00 0.00 0.00 86 1018.4
20260507153018 60 31 4.0 10.0 0.00 0.00 0.00 87 1018.4
20260507152514 60 17 8.0 13.0 0.00 0.00 0.00 87 1018.0
20260507152011 60 66 5.0 11.0 0.00 0.00 0.00 88 1018.2
20260507151507 60 14 4.0 13.0 0.00 0.00 0.00 88 1017.7
20260507151004 60 324 8.0 13.0 0.00 0.00 0.00 88 1017.3
20260507150501 60 323 3.0 10.0 0.00 0.00 0.00 89 1017.6
20260507145957 59 17 6.0 14.0 0.00 0.00 0.00 90 1017.4
20260507145453 59 350 5.0 12.0 0.00 0.00 0.00 91 1017.6
20260507144950 59 7 11.0 11.0 0.00 0.00 0.00 91 1017.7
20260507144447 59 346 3.0 10.0 0.00 0.00 0.00 92 1017.9
20260507143944 59 309 5.0 9.0 0.00 0.00 0.00 92 1018.2
20260507143442 59 340 3.0 10.0 0.00 0.00 0.00 91 1018.1
20260507142938 59 327 3.0 7.0 0.00 0.00 0.00 92 1018.4
20260507142434 59 325 6.0 7.0 0.00 0.00 0.00 92 1018.4
20260507141931 59 2 4.0 8.0 0.00 0.00 0.00 92 1018.0
20260507141427 59 339 4.0 12.0 0.00 0.00 0.00 92 1017.8
20260507140924 59 8 4.0 12.0 0.00 0.00 0.00 92 1017.8
20260507140420 59 302 7.0 12.0 0.00 0.00 0.00 92 1018.0
20260507135918 59 34 9.0 10.0 0.00 0.00 0.00 92 1018.0
20260507135414 59 19 7.0 11.0 0.00 0.00 0.00 92 1017.9
20260507134912 59 314 4.0 10.0 0.00 0.00 0.00 91 1017.5